[[{"header":{"parameterUnit":"m.s-1","parameterCategory":1,"la1":30.2991,"la2":30.254,"lo1":-89.0895,"lo2":-89.0444,"dy":0.0017,"dx":0.0017,"nx":28,"ny":28,"refTime":"2025-06-09T21:00:00:Z","depth":0,"parameterNumber":2,"parameterNumberName":"U-component_of_WINDS"},"data":[0,0,0,0,0,0,0,0,0,0,0,0,0,0,0,0,0,0,0,0,0,0,0,0,0,0,0,0,0,0,0,0,0,0,0,0,0,0,0,0,0,0,0,0,0,0,0,0,0,0,0,0,0,0,0,0,0,0,-1.8829,-1.8828,0,-1.8738,-1.8737,-1.8736,-1.8621,-1.862,-1.8618,-1.8616,-1.8525,-1.8525,-1.8524,0,0,0,0,0,0,0,0,0,0,0,0,0,-1.8908,-1.8907,-1.8829,-1.8828,-1.8827,-1.8738,-1.8737,-1.8736,-1.8622,-1.862,-1.8617,-1.8615,-1.8525,-1.8525,-1.8524,0,0,0,0,0,0,0,0,0,0,0,0,0,-1.8851,-1.8907,-1.8829,-1.8759,-1.8752,-1.8739,-1.8737,-1.8735,-1.8622,-1.8619,-1.8617,-1.8614,-1.8526,-1.8525,-1.8524,-1.8572,0,0,-1.852,-1.852,0,0,0,0,0,0,0,0,-1.8854,-1.8848,-1.8771,-1.8764,-1.8756,-1.8688,-1.8731,-1.8681,-1.8623,-1.8672,-1.8616,-1.8613,-1.8582,-1.8576,-1.8565,-1.8568,-1.8564,-1.852,-1.852,-1.8519,-1.8519,0,0,0,0,0,0,0,-1.8858,-1.8851,-1.8793,-1.877,-1.8761,-1.8734,-1.8722,-1.8721,-1.8643,-1.8667,-1.8659,-1.8649,-1.8577,-1.8566,-1.8562,-1.8563,-1.852,-1.8519,-1.8519,-1.8518,-1.8605,-1.8608,0,0,0,0,0,0,-1.8872,-1.8856,-1.8796,-1.879,-1.8799,-1.8734,-1.8722,-1.8713,-1.8643,-1.863,-1.8652,-1.8644,-1.857,-1.8563,-1.8559,-1.8613,-1.8519,-1.8518,-1.8518,-1.8602,-1.8605,-1.8609,0,0,0,0,0,0,-1.8875,-1.8868,-1.88,-1.8821,-1.881,-1.8736,-1.8727,-1.8712,-1.8701,-1.8631,-1.8617,-1.8655,-1.8567,-1.856,-1.857,-1.8608,-1.8518,-1.8517,-1.8598,-1.8603,-1.8607,-1.8722,0,0,0,0,0,0,-1.8877,-1.887,-1.8886,-1.8822,-1.8809,-1.8812,-1.8729,-1.8713,-1.87,-1.8689,-1.863,-1.8618,-1.8564,-1.8573,-1.8569,-1.8605,-1.8516,-1.8595,-1.86,-1.8606,-1.8714,-1.8729,-1.8742,0,0,0,0,0,-1.888,-1.8922,-1.8888,-1.8881,-1.8828,-1.8814,-1.8807,-1.8744,-1.8703,-1.872,-1.8676,-1.862,-1.8605,-1.8575,-1.857,-1.8606,-1.8592,-1.8599,-1.8605,-1.8708,-1.8726,-1.8742,0,0,0,0,0,0,-1.8993,-1.8912,-1.8873,-1.8895,-1.8862,-1.8795,-1.8814,-1.8765,-1.8744,-1.8735,-1.8659,-1.8646,-1.8667,-1.8637,-1.8605,-1.8651,-1.859,-1.8596,-1.867,-1.8687,-1.8701,-1.8708,-1.8515,0,0,0,0,0,-1.902,-1.9014,-1.8945,-1.897,-1.8956,-1.8889,-1.888,-1.8835,-1.8798,-1.8784,-1.874,-1.8708,-1.8696,-1.8689,-1.8674,-1.8709,-1.8696,-1.8732,-1.8746,-1.8758,-1.8765,-1.8784,-1.88,-1.863,-1.863,-1.863,0,0,-1.9076,-1.9031,-1.9032,-1.8992,-1.8961,-1.8959,-1.8878,-1.8878,-1.8876,-1.8784,-1.8792,-1.8759,-1.8718,-1.8742,-1.875,-1.8717,-1.8809,-1.8767,-1.8777,-1.8776,-1.8792,-1.8808,-1.8823,-1.8635,-1.8634,-1.8633,0,0,-1.9177,-1.9142,-1.9161,-1.9133,-1.9088,-1.9043,-1.9048,-1.8989,-1.8963,-1.897,-1.8902,-1.8899,-1.8879,-1.8854,-1.8838,-1.8934,-1.8883,-1.8931,-1.9005,-1.9025,-1.9038,-1.905,-1.9086,-1.91,-1.8937,-1.8938,-1.8938,0,-1.9253,-1.9246,-1.9177,-1.9183,-1.9168,-1.9085,-1.9105,-1.9081,-1.9034,-1.9026,-1.8991,-1.8966,-1.8932,-1.8951,-1.8974,-1.8964,-1.8969,-1.8937,-1.9041,-1.9052,-1.9062,-1.9096,-1.911,-1.8944,-1.8943,-1.8943,-1.8942,0,-1.9342,-1.9339,-1.936,-1.9317,-1.9304,-1.9317,-1.9252,-1.9248,-1.9205,-1.9164,-1.9174,-1.9131,-1.9107,-1.9108,-1.9064,-1.9121,-1.9102,-1.9055,-1.8993,-1.9086,-1.9116,-1.9129,-1.8953,-1.8951,-1.8949,-1.8947,0,0,-1.9511,-1.9431,-1.944,-1.9421,-1.9367,-1.9363,-1.9374,-1.935,-1.935,-1.9321,-1.9329,-1.9315,-1.9272,-1.9255,-1.9209,-1.9226,-1.9308,-1.9177,-1.9175,-1.9205,-1.937,-1.9407,-1.9423,-1.9273,-1.9276,-1.9277,-1.9374,0,-1.9603,-1.9615,-1.9555,-1.9584,-1.9581,-1.9504,-1.9513,-1.9482,-1.9445,-1.9439,-1.9398,-1.9391,-1.9334,-1.9323,-1.9337,-1.9295,-1.934,-1.9287,-1.9282,-1.9283,-1.9296,-1.9438,-1.9476,-1.957,-1.9385,-1.9387,-1.9389,0,-1.9712,-1.969,-1.9719,-1.9666,-1.9662,-1.9672,-1.9647,-1.9641,-1.9605,-1.9578,-1.956,-1.9507,-1.9516,-1.9456,-1.9468,-1.9433,-1.9428,-1.9408,-1.941,-1.9408,-1.9342,-1.9442,-1.9598,-1.9613,-1.9407,-1.9405,-1.9404,0,-1.9835,-1.9812,-1.9827,-1.9813,-1.975,-1.9759,-1.9734,-1.9695,-1.9686,-1.9665,-1.9659,-1.9639,-1.9629,-1.9616,-1.956,-1.9521,-1.958,-1.9515,-1.9559,-1.9561,-1.9576,-1.9576,-1.9735,-1.957,-1.957,-1.957,-1.957,0,-1.9945,-1.9966,-1.9882,-1.9891,-1.9913,-1.9845,-1.9869,-1.9837,-1.9804,-1.9807,-1.9738,-1.9743,-1.9668,-1.9665,-1.9622,-1.964,-1.9635,-1.9615,-1.9604,-1.9622,-1.9625,-1.9618,-1.9611,-1.9573,-1.9573,-1.9572,-1.9571,0,-2.0086,-2.003,-2.0041,-1.9982,-1.9968,-1.9987,-1.9937,-1.9945,-1.9905,-1.991,-1.9907,-1.9844,-1.9838,-1.9781,-1.9761,-1.9732,-1.9768,-1.9743,-1.978,-1.9773,-1.9821,-1.9818,-1.9982,-2.0002,-1.9824,-1.9826,-1.9827,0,-2.0161,-2.0175,-2.0118,-2.0116,-2.0094,-2.0089,-2.008,-2.0015,-2.0008,-1.997,-1.9983,-1.9971,-1.9957,-1.9951,-1.9905,-1.989,-1.9866,-1.9924,-1.9863,-1.9882,-1.9869,-1.987,-1.9872,-1.9938,-1.994,-1.9942,-1.9943,0,-2.03,-2.0272,-2.0261,-2.0241,-2.0232,-2.0213,-2.019,-2.0192,-2.012,-2.0117,-2.0109,-2.0099,-2.008,-2.007,-2.0048,-2.0023,-1.9973,-1.9963,-1.9973,-1.9993,-2.0014,-2.0006,-1.9817,-1.996,-1.9958,-1.9957,-1.9956,-1.9955,-2.0411,-2.0421,-2.0384,-2.0375,-2.0351,-2.0332,-2.0337,-2.0298,-2.029,-2.0269,-2.0231,-2.023,-2.0197,-2.0162,-2.0143,-2.0142,-2.0112,-2.0125,-2.0129,-2.0134,-2.0145,-2.0014,-2.0137,-2.0137,-2.0136,-2.0136,-2.0136,0,-2.0549,-2.0521,-2.0513,-2.0484,-2.0478,-2.043,-2.0403,-2.0401,-2.0401,-2.0374,-2.0363,-2.0356,-2.0347,-2.0301,-2.0287,-2.0295,-2.0272,-2.0294,-2.0294,-2.0289,-2.0172,-2.0165,-2.0313,-2.0313,-2.0313,-2.0313,-2.0313,-2.0313,-2.0619,-2.0636,-2.0604,-2.0609,-2.0581,-2.0579,-2.0569,-2.0552,-2.053,-2.0525,-2.0517,-2.0487,-2.0454,-2.0437,-2.0427,-2.0414,-2.0413,-2.0444,-2.0423,-2.0314,-2.0297,-2.0281,-2.0275,-2.0443,-2.0444,-2.0541,-2.0542,-2.0543]},{"header":{"parameterUnit":"m.s-1","parameterCategory":1,"la1":30.2991,"la2":30.254,"lo1":-89.0895,"lo2":-89.0444,"dy":0.0017,"dx":0.0017,"nx":28,"ny":28,"refTime":"2025-06-09T21:00:00:Z","depth":0,"parameterNumber":3,"parameterNumberName":"V-component_of_WINDS"},"data":[0,0,0,0,0,0,0,0,0,0,0,0,0,0,0,0,0,0,0,0,0,0,0,0,0,0,0,0,0,0,0,0,0,0,0,0,0,0,0,0,0,0,0,0,0,0,0,0,0,0,0,0,0,0,0,0,0,0,0.2944,0.2945,0,0.3005,0.3005,0.3006,0.3043,0.3043,0.3044,0.3044,0.3112,0.3113,0.3115,0,0,0,0,0,0,0,0,0,0,0,0,0,0.2865,0.2866,0.2944,0.2945,0.2945,0.3005,0.3005,0.3006,0.3043,0.3043,0.3044,0.3044,0.3111,0.3113,0.3115,0,0,0,0,0,0,0,0,0,0,0,0,0,0.291,0.2866,0.2944,0.2971,0.2974,0.3004,0.3006,0.3007,0.3043,0.3043,0.3044,0.3044,0.3111,0.3113,0.3115,0.3126,0,0,0.3123,0.3124,0,0,0,0,0,0,0,0,0.2907,0.2913,0.2966,0.2969,0.2972,0.3016,0.3003,0.3047,0.3043,0.3017,0.3044,0.3044,0.308,0.3085,0.3096,0.3129,0.3132,0.3123,0.3125,0.3126,0.3127,0,0,0,0,0,0,0,0.2904,0.291,0.2968,0.2967,0.2971,0.2982,0.2988,0.3011,0.3047,0.3019,0.3022,0.3028,0.3082,0.3094,0.3098,0.3133,0.3123,0.3125,0.3127,0.3128,0.3178,0.3177,0,0,0,0,0,0,0.2896,0.2907,0.2966,0.297,0.294,0.2983,0.299,0.3002,0.3046,0.3053,0.3028,0.303,0.3089,0.3095,0.3101,0.3115,0.3126,0.3128,0.313,0.3178,0.3178,0.3177,0,0,0,0,0,0,0.2894,0.2901,0.2964,0.2939,0.2948,0.2984,0.2997,0.3003,0.3015,0.3053,0.306,0.3033,0.309,0.3097,0.3119,0.3118,0.3129,0.3132,0.3178,0.3178,0.3177,0.3145,0,0,0,0,0,0,0.2892,0.29,0.2903,0.2939,0.2949,0.2979,0.2997,0.3004,0.3018,0.3021,0.306,0.3066,0.3091,0.3115,0.3121,0.3122,0.3134,0.3178,0.3178,0.3178,0.3146,0.3144,0.3141,0,0,0,0,0,0.2889,0.2893,0.2903,0.291,0.2954,0.2979,0.2985,0.3011,0.3018,0.3022,0.3047,0.3065,0.3117,0.3117,0.3124,0.3126,0.3178,0.3178,0.3178,0.3147,0.3144,0.3141,0,0,0,0,0,0,0.2857,0.2898,0.291,0.2925,0.2948,0.2985,0.2991,0.3007,0.303,0.3032,0.3065,0.3074,0.3092,0.3112,0.311,0.3138,0.315,0.3151,0.3125,0.3122,0.3119,0.3114,0.3136,0,0,0,0,0,0.2852,0.2867,0.2903,0.2913,0.2924,0.2955,0.2967,0.2985,0.3011,0.3022,0.3048,0.3074,0.3096,0.311,0.3133,0.315,0.3159,0.3154,0.3152,0.315,0.315,0.316,0.3159,0.3176,0.3176,0.3176,0,0,0.2841,0.2865,0.2873,0.2907,0.2927,0.2944,0.2963,0.298,0.2993,0.3025,0.3046,0.3066,0.3098,0.3117,0.3126,0.3133,0.3147,0.3149,0.3147,0.3149,0.316,0.3158,0.3157,0.3176,0.3176,0.3176,0,0,0.283,0.285,0.286,0.2879,0.2908,0.2929,0.2932,0.2966,0.298,0.3002,0.3026,0.3043,0.3081,0.3102,0.3118,0.3115,0.3133,0.3122,0.3109,0.3118,0.3117,0.3116,0.3114,0.3114,0.3122,0.3122,0.3122,0,0.2814,0.2838,0.2864,0.2879,0.2893,0.2921,0.2932,0.2951,0.2987,0.2997,0.3004,0.3051,0.3074,0.3098,0.3097,0.311,0.3114,0.3117,0.3115,0.3114,0.3113,0.3112,0.3112,0.312,0.3121,0.3121,0.3121,0,0.2816,0.2833,0.2838,0.2869,0.2885,0.2898,0.2928,0.294,0.2957,0.2978,0.3,0.3029,0.3057,0.3065,0.3083,0.3092,0.3095,0.3108,0.312,0.3109,0.3109,0.3109,0.3118,0.3119,0.3119,0.312,0,0,0.2786,0.2832,0.2833,0.2848,0.2882,0.2896,0.2912,0.2938,0.2948,0.2972,0.2986,0.3017,0.3029,0.3047,0.3068,0.3076,0.3071,0.3088,0.3089,0.3083,0.3083,0.3072,0.3072,0.3083,0.3084,0.3084,0.308,0,0.278,0.2806,0.283,0.2848,0.2864,0.2891,0.2904,0.2928,0.2947,0.2965,0.2989,0.301,0.3024,0.3035,0.3044,0.3069,0.3072,0.307,0.3098,0.3099,0.3088,0.3072,0.3061,0.3056,0.308,0.308,0.308,0,0.2776,0.2796,0.2815,0.2847,0.2855,0.2866,0.2892,0.2909,0.2936,0.2951,0.297,0.2991,0.301,0.3021,0.3048,0.3046,0.3059,0.3074,0.3074,0.3077,0.3088,0.3074,0.3055,0.3054,0.3081,0.3081,0.3081,0,0.2751,0.2784,0.28,0.2811,0.285,0.2857,0.2874,0.2901,0.2916,0.2939,0.2949,0.2975,0.2989,0.301,0.3038,0.3043,0.3062,0.3076,0.3075,0.3074,0.3078,0.3077,0.306,0.3087,0.3087,0.3087,0.3087,0,0.2741,0.2751,0.2789,0.2798,0.2811,0.284,0.2853,0.2872,0.2896,0.2911,0.2937,0.2951,0.2988,0.3006,0.3029,0.3048,0.3055,0.3067,0.3073,0.3064,0.3063,0.3073,0.3074,0.3087,0.3087,0.3087,0.3087,0,0.2716,0.2741,0.2759,0.2794,0.2803,0.2811,0.2841,0.2852,0.2873,0.2892,0.2898,0.2932,0.2956,0.2986,0.302,0.3035,0.3051,0.306,0.3041,0.3044,0.3042,0.3041,0.303,0.303,0.3057,0.3057,0.3057,0,0.2707,0.2715,0.275,0.276,0.2776,0.2793,0.2807,0.2836,0.285,0.2882,0.289,0.2915,0.2936,0.2972,0.3001,0.3027,0.3037,0.3032,0.3041,0.3032,0.3036,0.3035,0.3036,0.3029,0.3029,0.3028,0.3028,0,0.2689,0.2701,0.2719,0.2741,0.2757,0.2776,0.2798,0.2806,0.2839,0.2854,0.2877,0.2893,0.2927,0.2951,0.2981,0.3001,0.302,0.3025,0.3026,0.3017,0.3005,0.3011,0.3033,0.3025,0.3025,0.3025,0.3025,0.3025,0.2671,0.2679,0.2705,0.2724,0.2743,0.2762,0.2773,0.2796,0.2815,0.2842,0.2859,0.2882,0.291,0.2951,0.297,0.2989,0.2997,0.2999,0.2999,0.2999,0.2996,0.3002,0.2995,0.2995,0.2995,0.2995,0.2996,0,0.2653,0.2671,0.2688,0.2716,0.2732,0.2747,0.2771,0.2784,0.2802,0.2826,0.2846,0.2873,0.2897,0.2927,0.2954,0.2963,0.2973,0.2969,0.2969,0.2973,0.2988,0.2984,0.2961,0.2961,0.2961,0.2961,0.2961,0.2961,0.2646,0.2661,0.2676,0.2701,0.2719,0.2739,0.2752,0.277,0.2789,0.2817,0.2836,0.2855,0.2882,0.2911,0.2934,0.2943,0.2951,0.2944,0.2956,0.2969,0.2972,0.2975,0.2971,0.2946,0.2946,0.2939,0.2939,0.2939]}]]